Regional Weather Roundup
Issued by NWS Sterling, VA

Home | Current Version | Previous Version | Text Only | Print | Product List | Glossary Off
Versions: 1 2 3 4 5 6 7 8 9 10 11 12 13 14 15 16 17 18 19 20 21 22 23 24 25 26 27

000
ASUS41 KLWX 230210
RWRLWX

REGIONAL WEATHER ROUNDUP
NATIONAL WEATHER SERVICE BALTIMORE MD/WASHINGTON DC
1000 PM EDT MON AUG 22 2016

Note: "FAIR" indicates few or no clouds below 12,000 feet
with no significant weather and/or obstructions to visibility.
 TC=TEMPERATURE CELSIUS

 * =Non NWS site. Station does not report precipitation (e.g. rain,
    snow, etc.), thunder, or fog.

DCZ001-MDZ009-015-VAZ040>042-051-053>054-230300-
WASHINGTON METRO

CITY           SKY/WX    TMP DP  RH WIND       PRES   REMARKS
WASHINGTON NAT PTCLDY    77  59  53 N6        30.19R
DULLES         PTCLDY    69  57  65 CALM      30.20R
ANDREWS AFB    CLEAR     66  61  82 CALM      30.18R
FT BELVOIR     CLEAR     66  63  89 CALM      30.18R
COLLEGE PARK*  CLEAR     64  63  94 CALM      30.19R
LEESBURG*      CLEAR     68  64  88 CALM      30.21R
MANASSAS*      CLEAR     66  66 100 CALM      30.19R
GAITHERSBURG*  CLEAR     64  57  77 CALM      30.24R

$$

MDZ006>007-011-014-230300-
BALTIMORE METRO

CITY           SKY/WX    TMP DP  RH WIND       PRES   REMARKS
BWI AIRPORT    CLEAR     68  61  78 CALM      30.19R
MD SCIENCE CTR   N/A     77  56  48 MISG      30.18
MARTIN STATE   CLEAR     70  66  88 CALM      30.20R
ANNAPOLIS      CLEAR     73  68  84 CALM      30.18R
FORT MEADE*    CLEAR     63  61  94 CALM      30.21R

$$

MDZ012-015-019>023-230300-
MARYLAND EASTERN SHORE

CITY           SKY/WX    TMP DP  RH WIND       PRES   REMARKS
OCEAN CITY     CLEAR     67  63  87 CALM      30.18R
SALISBURY      CLEAR     68  63  84 CALM      30.18R
BAY BRIDGE AP* CLEAR     73  59  60 E5        30.18R
CAMBRIDGE*     CLEAR     64  63  94 CALM      30.18R
EASTON*        CLEAR     70  66  89 CALM      30.22R

$$

MDZ017>025-230300-
SOUTHERN MARYLAND

CITY           SKY/WX    TMP DP  RH WIND       PRES   REMARKS
PATUXENT RIVER CLEAR     69  62  78 CALM      30.18R
ST INIGOES     CLEAR     68  64  87 CALM      30.17R
LEONARDTOWN*   CLEAR     64  61  88 CALM      30.20R

$$

MDZ003>005-230300-
NORTH CENTRAL MARYLAND

CITY           SKY/WX    TMP DP  RH WIND       PRES   REMARKS
FREDERICK*     CLEAR     64  64 100 CALM      30.23R
HAGERSTOWN APT CLEAR     71  52  50 N5        30.21R

$$

MDZ501>502-230300-
WESTERN MARYLAND

CITY           SKY/WX    TMP DP  RH WIND       PRES   REMARKS
OAKLAND*       CLEAR     59  54  82 CALM      30.31R
CUMBERLAND*    CLEAR     68  57  68 N3        30.27R

$$

VAZ025>031-230300-
SHENANDOAH VALLEY

CITY           SKY/WX    TMP DP  RH WIND       PRES   REMARKS
WINCHESTER*    CLEAR     63  57  82 NW3       30.22R
FRONT ROYAL*   CLOUDY    64  63  94 CALM      30.21R
LURAY*         FAIR      64  64 100 CALM      30.23R
NEW MARKET*    MOCLDY   N/A N/A N/A CALM      30.22R
STAUNTON*      CLOUDY    67  60  76 N3        30.25R
WAYNESBORO*    CLOUDY    68  60  74 CALM      30.24R

$$

WVZ021-048>050-054>055-230300-
EASTERN WEST VIRGINIA PANHANDLE

CITY           SKY/WX    TMP DP  RH WIND       PRES   REMARKS
MARTINSBURG    CLEAR     66  58  75 CALM      30.20R
PETERSBURG*    CLEAR     65  59  80 CALM      30.24R

$$

VAZ036>039-050-230300-
CENTRAL FOOTHILLS

CITY           SKY/WX    TMP DP  RH WIND       PRES   REMARKS
CHARLOTTESVILL CLOUDY    70  63  78 CALM      30.21R
CULPEPER*      PTCLDY    67  66  97 CALM      30.21R
ORANGE*          N/A     64  64 100 CALM      30.22R
GORDONSVILLE*  NOT AVBL
WARRENTON*     FAIR      64  58  83 CALM      30.20R

$$

VAZ055>057-230300-
NORTH AND CENTRAL PIEDMONT

CITY           SKY/WX    TMP DP  RH WIND       PRES   REMARKS
FREDERICKSBRG* CLEAR     68  64  85 CALM      30.18R
STAFFORD*      CLEAR     64  63  95 CALM      30.23R

$$

NCZ024-NYZ072-PAZ021-071-VAZ022-071-230300-
OTHER REGIONAL OBSERVATIONS

CITY           SKY/WX    TMP DP  RH WIND       PRES   REMARKS
NEW YORK CITY  CLEAR     70  47  43 N5        30.21R
PHILADELPHIA   CLEAR     73  49  42 N10       30.19R
PITTSBURGH     PTCLDY    71  54  54 NE3       30.23R
ROANOKE        PTCLDY    71  56  58 SE3       30.25R
RICHMOND       PTCLDY    70  60  70 NE5       30.18R
RALEIGH        PTCLDY    73  61  65 N3        30.19R

$$

ANZ530>537-230300-
MARINE OBSERVATIONS

STATION/POSITION TIME  TEMP    WIND        PRES
                       AIR SEA DIR/SP/G
                 (UTC) (F)     (DEG/KT/KT) (MB)
THOMAS PT LIGHT  0200   79 83  350/  7/  8 1023.4R
BALT KEY BRIDGE  0142   77      20/  6/  7 1021.9R
COVE POINT       0142   78     100/  7/  9 1022.3R
LEWISETTA        0142   76 83  310/  4/  5 1021.4R
SOLOMONS ISLAND  0142   78 85  330/  4/  5   N/A
PINEY POINT      0136           30/  3/  3   N/A

$$





USA.gov is the U.S. government's official web portal to all federal, state and local government web resources and services.